Total_Precipitation_Accumulation
1.64 1.86 1.88 1.76 1.76 1.84 1.75 1.71 1.83 1.86 1.85 1.89 1.90 1.87 1.87 2.02 2.23 2.42 2.40 2.56 2.69 2.74 2.73 2.64 2.52 2.56 2.72 2.66 2.79 2.94 3.15 3.36 3.12 2.79 2.65 2.59 2.58 2.38 2.21 1.91 1.67 1.54 1.42
1.90 2.17 2.21 1.96 1.74 1.65 1.53 1.53 1.70 1.89 1.90 1.87 1.85 1.83 1.80 1.90 2.16 2.34 2.46 2.71 2.83 2.75 2.66 2.61 2.49 2.60 2.71 2.68 2.75 2.76 2.82 3.10 3.02 2.82 2.76 2.80 2.68 2.44 2.32 2.12 1.76 1.57 1.57
1.72 2.01 2.01 1.76 1.55 1.51 1.51 1.56 1.69 1.83 1.83 1.79 1.81 1.87 2.00 2.12 2.32 2.44 2.55 2.72 2.68 2.58 2.60 2.52 2.41 2.48 2.44 2.50 2.54 2.53 2.53 2.63 2.80 2.72 2.63 2.70 2.62 2.41 2.32 2.16 2.03 2.11 1.92
1.31 1.59 1.59 1.44 1.39 1.40 1.46 1.49 1.49 1.53 1.59 1.64 1.85 2.08 2.24 2.37 2.46 2.51 2.51 2.49 2.48 2.40 2.30 2.22 2.22 2.32 2.39 2.38 2.31 2.31 2.37 2.52 2.61 2.63 2.60 2.68 2.69 2.65 2.50 2.37 2.39 2.34 2.17
1.23 1.42 1.38 1.34 1.35 1.31 1.31 1.40 1.47 1.52 1.57 1.78 1.95 2.05 2.10 2.16 2.24 2.35 2.35 2.30 2.27 2.19 2.06 1.87 1.90 2.19 2.31 2.29 2.13 2.21 2.29 2.40 2.48 2.59 2.63 2.72 2.78 2.92 2.69 2.43 2.35 2.40 2.27
1.13 1.35 1.34 1.31 1.28 1.21 1.26 1.34 1.49 1.60 1.76 1.93 1.95 1.93 1.89 1.64 1.74 1.86 1.92 1.96 1.98 1.94 1.81 1.73 1.74 1.83 1.85 1.90 1.91 1.92 1.96 2.04 2.24 2.50 2.61 2.61 2.58 2.68 2.74 2.61 2.50 2.46 2.43
1.15 1.32 1.38 1.33 1.33 1.30 1.27 1.42 1.62 1.79 1.95 2.07 2.04 1.97 1.85 1.76 1.66 1.55 1.55 1.63 1.76 1.77 1.77 1.82 1.61 1.46 1.57 1.60 1.72 1.71 1.64 1.70 1.82 2.08 2.29 2.31 2.39 2.39 2.61 2.63 2.67 2.74 2.71
1.19 1.38 1.44 1.38 1.43 1.51 1.50 1.59 1.83 2.05 2.19 2.22 2.18 2.08 1.99 1.92 1.83 1.64 1.62 1.56 1.67 1.70 1.70 1.72 1.66 1.56 1.54 1.64 1.71 1.66 1.52 1.46 1.44 1.42 1.65 1.93 2.13 2.34 2.39 2.46 2.59 2.67 2.69
1.24 1.41 1.51 1.55 1.62 1.64 1.68 1.86 2.09 2.27 2.31 2.30 2.33 2.23 2.15 2.18 2.02 1.67 1.51 1.47 1.63 1.67 1.67 1.60 1.56 1.52 1.56 1.44 1.42 1.45 1.44 1.41 1.26 1.25 1.33 1.54 1.73 1.78 1.97 2.24 2.46 2.46 2.42
1.55 1.64 1.83 2.02 2.19 2.24 2.26 2.31 2.35 2.45 2.41 2.41 2.35 2.32 2.22 2.18 2.08 1.58 1.34 1.33 1.52 1.58 1.65 1.61 1.50 1.37 1.35 1.23 1.23 1.38 1.36 1.34 1.35 1.28 1.19 1.22 1.30 1.45 1.52 1.60 1.91 2.12 2.04
1.88 1.96 2.15 2.45 2.62 2.62 2.61 2.53 2.45 2.47 2.50 2.48 2.36 2.28 2.22 2.13 2.02 1.61 1.41 1.42 1.58 1.67 1.65 1.61 1.55 1.41 1.22 1.16 1.13 1.19 1.25 1.21 1.27 1.31 1.28 1.23 1.31 1.42 1.39 1.37 1.53 1.73 1.80
2.17 2.31 2.49 2.70 2.64 2.58 2.76 2.68 2.64 2.70 2.67 2.53 2.39 2.27 2.27 2.21 2.02 1.71 1.47 1.51 1.65 1.76 1.83 1.78 1.69 1.46 1.22 1.12 1.05 1.05 1.02 0.95 0.99 1.13 1.16 1.12 1.14 1.26 1.34 1.33 1.38 1.42 1.47
2.39 2.53 2.61 2.67 2.81 2.95 3.02 2.92 2.81 2.76 2.67 2.46 2.32 2.18 2.10 2.15 2.17 1.78 1.50 1.53 1.61 1.65 1.82 1.85 1.59 1.34 1.17 1.01 0.99 0.98 0.88 0.82 0.93 1.00 0.99 0.97 0.96 1.06 1.27 1.41 1.46 1.47 1.41
2.24 2.25 2.34 2.48 2.61 2.71 2.95 3.01 2.91 2.76 2.65 2.55 2.43 2.25 2.13 2.15 2.15 1.82 1.51 1.48 1.55 1.53 1.60 1.67 1.52 1.33 1.18 1.05 1.00 0.95 0.89 0.91 1.00 1.01 1.02 1.05 1.06 1.11 1.20 1.28 1.39 1.44 1.42
2.21 2.15 2.11 2.14 2.28 2.40 2.52 2.61 2.57 2.54 2.36 2.24 2.11 2.01 1.97 1.99 1.97 1.72 1.52 1.49 1.59 1.63 1.59 1.60 1.59 1.45 1.32 1.21 1.17 1.20 1.21 1.16 1.08 1.07 1.10 1.12 1.11 1.10 1.15 1.22 1.29 1.33 1.27
2.04 1.97 1.97 1.96 2.04 2.10 2.11 2.05 1.88 1.79 1.64 1.49 1.42 1.36 1.36 1.42 1.55 1.39 1.27 1.33 1.47 1.53 1.42 1.41 1.52 1.52 1.45 1.37 1.30 1.30 1.28 1.22 1.15 1.15 1.13 1.11 1.09 1.07 1.09 1.13 1.17 1.18 1.17
1.96 1.82 1.71 1.68 1.75 1.76 1.82 1.94 2.00 1.76 1.55 1.36 1.22 1.09 1.07 1.16 1.24 1.23 1.17 1.18 1.28 1.31 1.23 1.27 1.36 1.41 1.37 1.35 1.29 1.26 1.20 1.21 1.22 1.16 1.12 1.13 1.11 1.07 1.07 1.11 1.12 1.17 1.17
1.90 1.80 1.69 1.66 1.71 1.75 1.79 1.87 2.01 2.00 1.72 1.36 1.20 1.09 0.94 0.90 0.91 0.95 0.96 0.99 1.06 1.08 1.08 1.15 1.20 1.25 1.26 1.26 1.26 1.24 1.20 1.21 1.20 1.17 1.14 1.14 1.14 1.10 1.11 1.13 1.09 1.11 1.17
1.75 1.69 1.64 1.67 1.68 1.70 1.81 1.85 1.85 1.88 1.77 1.54 1.29 1.07 0.90 0.77 0.76 0.82 0.81 0.84 0.98 1.01 1.00 1.03 1.04 1.05 1.11 1.16 1.17 1.20 1.19 1.16 1.15 1.19 1.16 1.14 1.16 1.18 1.18 1.18 1.18 1.20 1.20
1.65 1.55 1.45 1.48 1.49 1.45 1.49 1.56 1.57 1.62 1.58 1.47 1.32 1.05 0.83 0.73 0.77 0.84 0.83 0.91 1.00 1.00 0.95 0.98 0.93 0.92 0.98 1.06 1.12 1.17 1.16 1.18 1.21 1.20 1.17 1.16 1.15 1.15 1.15 1.16 1.19 1.22 1.24
1.61 1.39 1.15 1.06 1.14 1.25 1.35 1.41 1.41 1.40 1.41 1.37 1.19 0.92 0.71 0.62 0.73 0.87 0.94 0.97 0.96 0.96 0.91 0.87 0.83 0.84 0.89 0.95 1.00 1.05 1.11 1.19 1.18 1.15 1.18 1.14 1.09 1.09 1.08 1.11 1.11 1.14 1.20
1.50 1.36 1.17 1.04 1.07 1.13 1.21 1.33 1.34 1.28 1.24 1.19 1.07 0.87 0.71 0.60 0.69 0.80 0.86 0.86 0.84 0.86 0.83 0.79 0.76 0.80 0.83 0.89 0.96 1.01 1.05 1.07 1.09 1.11 1.12 1.12 1.11 1.10 1.10 1.17 1.19 1.19 1.22
1.40 1.34 1.23 1.14 1.17 1.15 1.18 1.25 1.21 1.15 1.11 1.06 0.98 0.87 0.76 0.74 0.78 0.83 0.85 0.85 0.85 0.81 0.78 0.76 0.73 0.73 0.79 0.84 0.87 0.93 0.99 0.99 1.01 1.04 1.09 1.12 1.12 1.14 1.20 1.24 1.22 1.20 1.19
1.24 1.21 1.10 1.05 1.09 1.13 1.10 1.10 1.05 1.00 0.95 0.91 0.86 0.83 0.79 0.79 0.80 0.80 0.82 0.82 0.79 0.73 0.68 0.69 0.71 0.74 0.78 0.81 0.80 0.81 0.83 0.87 0.88 0.93 0.99 1.05 1.09 1.18 1.27 1.31 1.27 1.23 1.28
1.16 1.18 1.10 1.04 1.04 1.05 1.04 1.02 0.97 0.93 0.89 0.82 0.79 0.76 0.75 0.75 0.76 0.79 0.79 0.74 0.69 0.67 0.65 0.66 0.72 0.72 0.68 0.69 0.70 0.70 0.78 0.78 0.77 0.85 0.96 1.10 1.15 1.24 1.36 1.39 1.37 1.35 1.42
1.04 1.06 1.02 0.97 0.93 0.94 0.94 0.98 0.96 0.88 0.82 0.76 0.75 0.75 0.69 0.64 0.63 0.65 0.64 0.63 0.62 0.63 0.65 0.66 0.69 0.70 0.68 0.66 0.67 0.72 0.72 0.70 0.73 0.83 0.86 0.94 1.08 1.18 1.26 1.31 1.27 1.33 1.41